Weather History for KLWD - November, 2012

Change the Weather History Date:

Tuesday, November 6, 2012

  Actual Average Record
Temperature  
Mean Temperature 47 °F 44 °F  
Max Temperature 55 °F 54 °F 74 °F (1980)
Min Temperature 39 °F 35 °F 13 °F (1991)
Degree Days  
Heating Degree Days 18 21  
Month to date heating degree days 113 117  
Since 1 July heating degree days 648 601  
Cooling Degree Days 0 0  
Month to date cooling degree days 0 0  
Year to date cooling degree days 1311 946  
Moisture  
Dew Point 36 °F    
Average Humidity 71    
Maximum Humidity 92    
Minimum Humidity 50    
Precipitation  
Precipitation T in 0.09 in 1.50 in (1972)
Month to date precipitation 0.36 0.69  
Sea Level Pressure  
Sea Level Pressure 29.99 in    
Wind  
Wind Speed 13 mph (West)    
Max Wind Speed 28 mph    
Max Gust Speed 37 mph    
Visibility 7 miles    
Events      
T = Trace of Precipitation, MM = Missing Value Source: NWS Daily Summary

Daily Weather History Graph

Daily Weather History Graph

Search for Another Location

Airport or City:

Trip Planner

Search our weather history database for the weather conditions in past years. The results will help you decide how hot, cold, wet, or windy it might be!

Date:

Astronomy

Nov. 06, 2012 Rise Set
Actual Time 6:52 AM CST 5:05 PM CST
Civil Twilight 6:23 AM CST 5:34 PM CST
Nautical Twilight 5:50 AM CST 6:07 PM CST
Astronomical Twilight 5:18 AM CST 6:39 PM CST
Moon 11:45 PM CST (11/6) 12:44 PM CST (11/6)
Length of Visible Light 11h 11m
Length of Day
10h 13m
Waning Gibbous, 53% of the Moon is Illuminated
Nov 6
Waning Gibbous
Nov 6
Last Quarter
Nov 13
New
Nov 20
First Quarter
Nov 28
Full

Hourly Weather History & Observations

Time (CST) Temp. Windchill Dew Point Humidity Pressure Visibility Wind Dir Wind Speed Gust Speed Precip Events Conditions
12:44 AM 39.2 °F 35.0 °F 37.4 °F 93% 30.04 in 3.0 mi SSE 5.8 mph - N/A   Overcast
12:53 AM 39.0 °F 34.8 °F 37.0 °F 93% 30.07 in 3.0 mi South 5.8 mph - N/A   Overcast
1:53 AM 39.0 °F 34.8 °F 37.9 °F 96% 30.09 in 3.0 mi SSW 5.8 mph - N/A   Overcast
2:53 AM 39.9 °F 35.8 °F 37.9 °F 93% 30.06 in 4.0 mi SSW 5.8 mph - N/A   Overcast
3:53 AM 39.0 °F 34.0 °F 37.0 °F 93% 30.03 in 4.0 mi SSW 6.9 mph - N/A   Overcast
4:05 AM 39.2 °F 34.2 °F 37.4 °F 93% 29.99 in 5.0 mi South 6.9 mph - N/A   Overcast
4:30 AM 39.2 °F 33.6 °F 37.4 °F 93% 29.99 in 5.0 mi SSW 8.1 mph - N/A   Overcast
4:53 AM 39.0 °F 32.8 °F 37.0 °F 93% 30.01 in 5.0 mi SSW 9.2 mph - N/A   Overcast
5:10 AM 39.2 °F 32.5 °F 37.4 °F 93% 29.98 in 6.0 mi SSW 10.4 mph - N/A   Overcast
5:23 AM 39.2 °F 32.5 °F 37.4 °F 93% 29.97 in 6.0 mi SSW 10.4 mph - N/A   Overcast
5:53 AM 39.0 °F 31.8 °F 37.0 °F 93% 30.00 in 6.0 mi SW 11.5 mph - N/A   Overcast
6:53 AM 39.9 °F 32.1 °F 37.0 °F 89% 29.97 in 5.0 mi SSW 13.8 mph - N/A   Overcast
7:08 AM 39.2 °F 31.2 °F 37.4 °F 93% 29.94 in 5.0 mi SSW 13.8 mph - 0.00 in   Overcast
7:53 AM 39.9 °F 32.5 °F 37.9 °F 93% 29.98 in 4.0 mi SW 12.7 mph - 0.00 in   Overcast
8:33 AM 41.0 °F 33.5 °F 37.4 °F 87% 29.96 in 5.0 mi SW 13.8 mph - N/A   Overcast
8:53 AM 41.0 °F 34.3 °F 37.9 °F 89% 29.98 in 6.0 mi SW 11.5 mph - N/A   Overcast
9:53 AM 44.1 °F 36.5 °F 39.0 °F 82% 29.97 in 8.0 mi West 17.3 mph - N/A   Overcast
10:21 AM 44.6 °F 38.4 °F 39.2 °F 81% 29.94 in 9.0 mi West 12.7 mph - N/A   Overcast
10:53 AM 46.9 °F - 39.0 °F 74% 29.96 in 10.0 mi NW 21.9 mph 28.8 mph N/A   Overcast
11:46 AM 50.0 °F - 39.2 °F 66% 29.94 in 10.0 mi NW 19.6 mph - N/A   Scattered Clouds
11:53 AM 51.1 °F - 39.9 °F 66% 29.95 in 10.0 mi NW 15.0 mph - N/A   Partly Cloudy
12:53 PM 53.1 °F - 35.1 °F 50% 29.93 in 10.0 mi NW 18.4 mph - N/A   Partly Cloudy
1:53 PM 54.0 °F - 35.1 °F 49% 29.93 in 10.0 mi NW 19.6 mph 32.2 mph N/A   Partly Cloudy
2:53 PM 52.0 °F - 34.0 °F 50% 29.95 in 10.0 mi NW 21.9 mph 29.9 mph N/A   Overcast
3:53 PM 51.1 °F - 34.0 °F 52% 29.96 in 10.0 mi NW 15.0 mph 23.0 mph N/A   Overcast
4:53 PM 50.0 °F - 33.1 °F 52% 29.97 in 10.0 mi NW 15.0 mph 25.3 mph N/A   Mostly Cloudy
5:53 PM 48.0 °F - 34.0 °F 58% 29.99 in 10.0 mi NW 12.7 mph - N/A   Overcast
6:53 PM 48.0 °F - 35.1 °F 61% 30.01 in 10.0 mi NW 9.2 mph - N/A   Overcast
7:53 PM 48.0 °F - 35.1 °F 61% 30.02 in 10.0 mi NNW 12.7 mph 20.7 mph N/A   Overcast
8:53 PM 48.0 °F - 34.0 °F 58% 30.02 in 10.0 mi NNW 10.4 mph 19.6 mph N/A   Overcast
9:53 PM 46.9 °F - 34.0 °F 61% 30.02 in 10.0 mi NW 9.2 mph - N/A   Overcast
10:53 PM 46.9 °F - 32.0 °F 56% 30.02 in 10.0 mi NNW 12.7 mph - N/A   Overcast
11:53 PM 46.0 °F 41.0 °F 33.1 °F 61% 30.01 in 10.0 mi NW 10.4 mph - N/A   Overcast